Terminal Aerodrome Forecast
Issued by NWS Aberdeen, SD

Home | Current Version | Previous Version | Text Only | Print | Product List | Glossary On
Versions: 1 2 3 4 5 6 7 8 9 10 11 12 13 14 15 16 17 18 19 20 21 22 23 24 25 26 27 28 29 30 31 32 33 34 35 36 37 38 39 40 41 42 43 44 45 46 47 48 49 50
000
FTUS43 KABR 241622 AAB
TAFABR
TAF AMD
KABR 241622Z 2416/2512 04009KT 4SM -SN BR OVC011
      TEMPO 2416/2417 2SM -SN OVC020
     FM241700 04013KT 2SM -SN OVC008
     FM250200 36014KT P6SM OVC015=

USA.gov is the U.S. government's official web portal to all federal, state and local government web resources and services.